User: anonymous   Login
Location: Lafig�re
(44.4503°N, 4.0357°E)
Time: 02:39:06
(UTC+00:00)
Language:

Sich 1 Rocket - Orbit

View from above orbital plane
View from above orbital plane
View from above satellite
View from above satellite

Ground track
Ground track

The orbit data is extracted from the following two-line orbital elements,

1 23659U 95046C   20334.62629330 +.00000106 +00000-0 +11324-4 0  9994
2 23659 082.5320 214.9156 0027078 068.7036 352.6293 14.78353537360598
Epoch (UTC): 29 November 2020 15:01:51
Eccentricity: 0.0027078
inclination: 82.5320°
perigee height: 615 km
apogee height: 653 km
right ascension of ascending node: 214.9156°
argument of perigee: 68.7036°
revolutions per day: 14.78353537
mean anomaly at epoch: 352.6293°
orbit number at epoch: 36059

The dashed part of the orbit path shows where the satellite is in the earth's shadow,  

DLR